QPF
0.01 0.02 0.05 0.11 0.16 0.20 0.19 0.15 0.11 0.10 0.03 0.02 0.01 0.02 0.04 0.06 0.08 0.10 0.16 0.17 0.09 0.06 0.05 0.07 0.06 0.07 0.06 0.06 0.04 0.05 0.05 0.04 0.03 0.02 0.02 0.01 0.01 0.03 0.03 0.02 0.01 0.02 0.02 0.02 0.02 0.02 0.02 0.03 0.02
0.01 0.03 0.06 0.12 0.18 0.19 0.17 0.14 0.13 0.07 0.01 0.01 0.00 0.01 0.02 0.02 0.02 0.06 0.14 0.14 0.09 0.07 0.07 0.06 0.07 0.07 0.06 0.05 0.04 0.04 0.04 0.02 0.02 0.01 0.01 0.01 0.01 0.02 0.02 0.02 0.01 0.01 0.02 0.01 0.02 0.02 0.02 0.03 0.03
0.01 0.02 0.06 0.13 0.15 0.16 0.15 0.13 0.08 0.02 0.01 0.01 0.01 0.02 0.02 0.04 0.04 0.06 0.10 0.09 0.07 0.05 0.06 0.06 0.08 0.07 0.06 0.05 0.03 0.03 0.02 0.01 0.01 0.01 0.01 0.01 0.01 0.02 0.01 0.02 0.01 0.01 0.01 0.01 0.02 0.02 0.02 0.02 0.03
0.02 0.04 0.06 0.13 0.13 0.11 0.11 0.09 0.03 0.01 0.01 0.01 0.01 0.02 0.02 0.04 0.03 0.04 0.05 0.06 0.04 0.03 0.03 0.04 0.05 0.05 0.05 0.05 0.03 0.02 0.01 0.01 0.01 0.01 0.01 0.01 0.01 0.01 0.01 0.01 0.01 0.01 0.01 0.01 0.01 0.02 0.02 0.03 0.03
0.03 0.05 0.09 0.12 0.08 0.07 0.08 0.06 0.04 0.03 0.03 0.01 0.01 0.03 0.04 0.06 0.05 0.04 0.04 0.05 0.04 0.04 0.04 0.04 0.04 0.04 0.03 0.03 0.03 0.03 0.02 0.01 0.01 0.01 0.01 0.01 0.01 0.01 0.01 0.01 0.01 0.01 0.01 0.02 0.02 0.02 0.02 0.02 0.01
0.05 0.05 0.11 0.11 0.06 0.04 0.04 0.04 0.05 0.04 0.04 0.04 0.03 0.04 0.06 0.11 0.09 0.08 0.07 0.06 0.04 0.04 0.04 0.02 0.02 0.02 0.01 0.02 0.02 0.03 0.02 0.01 0.01 0.01 0.01 0.01 0.01 0.01 0.01 0.02 0.02 0.01 0.01 0.01 0.01 0.02 0.02 0.01 0.01
0.06 0.08 0.12 0.12 0.06 0.04 0.03 0.03 0.04 0.06 0.04 0.03 0.02 0.04 0.07 0.13 0.11 0.08 0.05 0.04 0.05 0.03 0.03 0.02 0.01 0.01 0.01 0.01 0.02 0.03 0.02 0.01 0.01 0.00 0.00 0.00 0.01 0.01 0.01 0.01 0.02 0.02 0.01 0.01 0.01 0.01 0.01 0.01 0.01
0.03 0.07 0.12 0.12 0.09 0.05 0.02 0.02 0.02 0.05 0.04 0.02 0.02 0.03 0.06 0.09 0.06 0.04 0.03 0.03 0.05 0.03 0.02 0.02 0.01 0.01 0.01 0.01 0.01 0.03 0.02 0.01 0.01 0.00 0.00 0.00 0.01 0.00 0.01 0.01 0.01 0.01 0.00 0.00 0.00 0.00 0.01 0.01 0.01
0.02 0.09 0.12 0.12 0.09 0.05 0.04 0.03 0.03 0.03 0.04 0.02 0.02 0.02 0.03 0.04 0.03 0.03 0.03 0.03 0.04 0.02 0.02 0.02 0.01 0.02 0.02 0.01 0.02 0.02 0.02 0.01 0.01 0.01 0.01 0.01 0.01 0.01 0.02 0.01 0.01 0.00 0.00 0.00 0.00 0.00 0.00 0.01 0.01
0.06 0.12 0.11 0.08 0.06 0.02 0.02 0.03 0.03 0.04 0.05 0.03 0.02 0.02 0.02 0.03 0.03 0.03 0.02 0.01 0.01 0.01 0.01 0.02 0.01 0.03 0.05 0.03 0.02 0.02 0.02 0.02 0.02 0.02 0.01 0.02 0.01 0.01 0.01 0.01 0.01 0.00 0.00 0.00 0.00 0.00 0.00 0.00 0.00
0.05 0.10 0.09 0.04 0.04 0.03 0.02 0.03 0.03 0.05 0.05 0.02 0.01 0.02 0.02 0.04 0.02 0.02 0.01 0.01 0.01 0.01 0.02 0.02 0.01 0.01 0.03 0.04 0.05 0.03 0.03 0.03 0.02 0.02 0.01 0.01 0.01 0.01 0.01 0.01 0.00 0.00 0.00 0.01 0.01 0.00 0.00 0.00 0.01
0.04 0.05 0.04 0.03 0.02 0.03 0.03 0.04 0.05 0.05 0.05 0.02 0.01 0.02 0.02 0.04 0.03 0.01 0.01 0.01 0.00 0.01 0.03 0.03 0.02 0.02 0.04 0.05 0.06 0.02 0.03 0.03 0.02 0.01 0.01 0.01 0.01 0.01 0.01 0.01 0.01 0.01 0.00 0.01 0.01 0.01 0.01 0.00 0.00
0.04 0.04 0.03 0.02 0.03 0.03 0.04 0.05 0.07 0.06 0.03 0.03 0.02 0.03 0.03 0.03 0.02 0.01 0.01 0.00 0.00 0.01 0.03 0.04 0.03 0.03 0.03 0.03 0.04 0.02 0.03 0.03 0.02 0.01 0.01 0.01 0.01 0.01 0.01 0.01 0.01 0.01 0.01 0.02 0.01 0.01 0.00 0.00 0.00
0.03 0.04 0.05 0.04 0.03 0.04 0.05 0.05 0.08 0.09 0.04 0.03 0.03 0.04 0.03 0.02 0.01 0.01 0.01 0.01 0.01 0.00 0.01 0.02 0.03 0.03 0.02 0.02 0.02 0.02 0.03 0.02 0.01 0.00 0.00 0.00 0.00 0.00 0.00 0.00 0.00 0.00 0.01 0.02 0.01 0.01 0.01 0.01 0.01
0.05 0.06 0.04 0.04 0.03 0.05 0.06 0.07 0.09 0.07 0.04 0.03 0.03 0.03 0.03 0.03 0.01 0.02 0.01 0.01 0.02 0.02 0.02 0.01 0.01 0.01 0.01 0.01 0.01 0.01 0.01 0.01 0.01 0.00 0.00 0.00 0.00 0.00 0.00 0.00 0.00 0.00 0.00 0.01 0.00 0.00 0.01 0.02 0.02
0.06 0.08 0.06 0.05 0.04 0.02 0.04 0.09 0.12 0.08 0.06 0.06 0.04 0.02 0.02 0.02 0.02 0.03 0.01 0.01 0.01 0.02 0.03 0.03 0.02 0.01 0.00 0.00 0.00 0.01 0.01 0.01 0.00 0.00 0.00 0.00 0.00 0.00 0.00 0.00 0.00 0.00 0.00 0.00 0.00 0.00 0.02 0.03 0.04
0.07 0.08 0.06 0.06 0.04 0.02 0.04 0.07 0.11 0.13 0.08 0.07 0.05 0.03 0.02 0.01 0.01 0.01 0.00 0.00 0.01 0.01 0.01 0.02 0.03 0.01 0.00 0.00 0.00 0.00 0.00 0.00 0.00 0.00 0.00 0.00 0.00 0.00 0.00 0.00 0.00 0.00 0.01 0.01 0.01 0.01 0.01 0.01 0.02
0.08 0.07 0.06 0.05 0.05 0.03 0.04 0.07 0.09 0.13 0.10 0.08 0.06 0.03 0.02 0.01 0.01 0.00 0.00 0.00 0.00 0.00 0.01 0.01 0.02 0.02 0.00 0.00 0.00 0.00 0.00 0.00 0.00 0.00 0.00 0.00 0.00 0.00 0.00 0.00 0.00 0.00 0.01 0.02 0.01 0.01 0.01 0.01 0.02
0.05 0.06 0.05 0.03 0.04 0.04 0.05 0.07 0.07 0.09 0.10 0.10 0.06 0.04 0.02 0.01 0.00 0.00 0.00 0.00 0.00 0.00 0.00 0.01 0.02 0.02 0.00 0.00 0.00 0.00 0.00 0.00 0.00 0.00 0.00 0.00 0.00 0.00 0.00 0.00 0.00 0.00 0.01 0.01 0.01 0.01 0.01 0.01 0.02
0.05 0.05 0.03 0.03 0.03 0.04 0.06 0.08 0.06 0.07 0.10 0.10 0.04 0.02 0.01 0.01 0.00 0.00 0.00 0.00 0.01 0.00 0.00 0.01 0.01 0.01 0.00 0.00 0.00 0.00 0.00 0.00 0.00 0.00 0.00 0.00 0.00 0.00 0.00 0.00 0.00 0.00 0.01 0.01 0.01 0.01 0.02 0.02 0.02
0.06 0.05 0.03 0.02 0.03 0.05 0.06 0.08 0.07 0.06 0.07 0.08 0.05 0.02 0.01 0.00 0.00 0.00 0.00 0.00 0.01 0.00 0.00 0.01 0.01 0.01 0.00 0.00 0.00 0.00 0.00 0.00 0.00 0.00 0.00 0.00 0.00 0.00 0.00 0.00 0.00 0.00 0.00 0.01 0.01 0.01 0.02 0.02 0.02
0.06 0.03 0.04 0.03 0.03 0.06 0.05 0.07 0.04 0.04 0.04 0.04 0.04 0.02 0.01 0.00 0.00 0.00 0.00 0.00 0.00 0.00 0.00 0.01 0.01 0.00 0.00 0.00 0.00 0.00 0.00 0.00 0.00 0.00 0.00 0.00 0.00 0.00 0.00 0.00 0.00 0.00 0.01 0.01 0.01 0.00 0.01 0.02 0.02
0.03 0.02 0.04 0.04 0.03 0.03 0.03 0.05 0.03 0.02 0.02 0.01 0.01 0.01 0.01 0.00 0.00 0.00 0.00 0.00 0.00 0.00 0.00 0.00 0.01 0.01 0.00 0.00 0.00 0.00 0.00 0.00 0.00 0.00 0.00 0.00 0.00 0.00 0.00 0.00 0.00 0.00 0.00 0.01 0.01 0.01 0.01 0.01 0.01
0.02 0.03 0.04 0.05 0.04 0.05 0.02 0.03 0.03 0.01 0.00 0.00 0.00 0.00 0.00 0.00 0.00 0.00 0.00 0.00 0.00 0.01 0.01 0.00 0.00 0.00 0.01 0.00 0.00 0.00 0.00 0.00 0.00 0.00 0.00 0.00 0.00 0.00 0.00 0.00 0.00 0.00 0.00 0.00 0.00 0.00 0.00 0.00 0.01
0.02 0.05 0.08 0.09 0.08 0.06 0.02 0.02 0.02 0.00 0.00 0.00 0.00 0.00 0.00 0.00 0.00 0.00 0.00 0.00 0.00 0.00 0.01 0.01 0.00 0.00 0.01 0.01 0.00 0.00 0.00 0.00 0.00 0.00 0.00 0.00 0.00 0.00 0.00 0.00 0.00 0.00 0.00 0.00 0.00 0.00 0.00 0.00 0.00
0.03 0.04 0.07 0.08 0.06 0.04 0.02 0.01 0.01 0.00 0.00 0.00 0.00 0.00 0.00 0.00 0.00 0.00 0.00 0.00 0.00 0.00 0.00 0.00 0.00 0.00 0.00 0.01 0.00 0.00 0.00 0.00 0.00 0.00 0.00 0.00 0.00 0.00 0.00 0.00 0.00 0.00 0.00 0.00 0.00 0.00 0.00 0.00 0.00
0.04 0.03 0.03 0.05 0.04 0.05 0.03 0.01 0.01 0.00 0.00 0.00 0.00 0.00 0.00 0.00 0.00 0.00 0.00 0.00 0.00 0.00 0.00 0.00 0.00 0.00 0.00 0.00 0.00 0.00 0.00 0.00 0.00 0.00 0.00 0.00 0.00 0.00 0.00 0.00 0.00 0.00 0.00 0.00 0.00 0.00 0.00 0.00 0.00
0.03 0.03 0.03 0.04 0.06 0.07 0.04 0.02 0.01 0.00 0.00 0.00 0.00 0.00 0.00 0.00 0.00 0.00 0.00 0.00 0.00 0.00 0.00 0.00 0.00 0.00 0.00 0.00 0.00 0.00 0.00 0.00 0.00 0.00 0.00 0.00 0.00 0.00 0.00 0.00 0.00 0.00 0.00 0.00 0.00 0.00 0.00 0.00 0.00
0.02 0.02 0.03 0.03 0.03 0.06 0.07 0.04 0.01 0.01 0.00 0.00 0.00 0.00 0.00 0.00 0.00 0.00 0.00 0.00 0.00 0.00 0.00 0.00 0.00 0.00 0.00 0.00 0.00 0.00 0.00 0.00 0.00 0.00 0.00 0.00 0.00 0.00 0.00 0.00 0.00 0.00 0.00 0.00 0.00 0.00 0.00 0.00 0.00
0.02 0.02 0.03 0.05 0.04 0.04 0.05 0.04 0.00 0.00 0.00 0.00 0.00 0.00 0.00 0.00 0.00 0.00 0.00 0.00 0.00 0.00 0.00 0.00 0.00 0.00 0.00 0.00 0.00 0.00 0.00 0.00 0.00 0.00 0.00 0.00 0.00 0.00 0.00 0.00 0.00 0.00 0.00 0.00 0.00 0.00 0.00 0.00 0.00
MSLP
1008.37 1009.18 1010.23 1011.35 1012.33 1013.01 1013.29 1013.17 1012.77 1012.25 1011.82 1011.62 1011.76 1012.21 1012.88 1013.63 1014.30 1014.74 1014.90 1014.79 1014.50 1014.14 1013.84 1013.68 1013.73 1013.94 1014.26 1014.60 1014.88 1015.05 1015.10 1015.05 1014.96 1014.88 1014.86 1014.91 1015.02 1015.16 1015.28 1015.36 1015.37 1015.33 1015.26 1015.19 1015.16 1015.17 1015.22 1015.30 1015.38
1008.69 1009.63 1010.74 1011.85 1012.76 1013.31 1013.44 1013.20 1012.70 1012.14 1011.71 1011.56 1011.75 1012.25 1012.96 1013.72 1014.36 1014.77 1014.90 1014.79 1014.52 1014.21 1013.99 1013.93 1014.06 1014.33 1014.69 1015.03 1015.28 1015.41 1015.41 1015.32 1015.20 1015.10 1015.06 1015.09 1015.18 1015.29 1015.37 1015.41 1015.40 1015.34 1015.28 1015.24 1015.23 1015.28 1015.36 1015.45 1015.53
1009.11 1010.12 1011.24 1012.28 1013.06 1013.46 1013.45 1013.10 1012.55 1011.99 1011.62 1011.54 1011.81 1012.37 1013.09 1013.82 1014.41 1014.76 1014.84 1014.71 1014.45 1014.21 1014.07 1014.10 1014.32 1014.66 1015.04 1015.38 1015.62 1015.71 1015.67 1015.56 1015.41 1015.30 1015.25 1015.26 1015.31 1015.37 1015.41 1015.40 1015.36 1015.29 1015.24 1015.23 1015.26 1015.35 1015.47 1015.58 1015.66
1009.57 1010.60 1011.66 1012.58 1013.20 1013.44 1013.30 1012.87 1012.32 1011.83 1011.56 1011.60 1011.97 1012.58 1013.30 1013.99 1014.49 1014.75 1014.76 1014.59 1014.35 1014.16 1014.10 1014.22 1014.51 1014.91 1015.31 1015.65 1015.86 1015.92 1015.86 1015.73 1015.58 1015.46 1015.40 1015.39 1015.41 1015.43 1015.42 1015.37 1015.29 1015.22 1015.18 1015.20 1015.28 1015.42 1015.57 1015.70 1015.77
1010.03 1011.02 1011.97 1012.73 1013.18 1013.26 1013.02 1012.57 1012.07 1011.69 1011.57 1011.76 1012.24 1012.91 1013.62 1014.24 1014.65 1014.80 1014.72 1014.51 1014.26 1014.11 1014.11 1014.31 1014.66 1015.08 1015.49 1015.81 1015.99 1016.03 1015.95 1015.81 1015.66 1015.56 1015.51 1015.50 1015.50 1015.49 1015.44 1015.35 1015.25 1015.17 1015.14 1015.19 1015.31 1015.48 1015.66 1015.80 1015.87
1010.46 1011.37 1012.17 1012.75 1013.02 1012.97 1012.66 1012.23 1011.83 1011.61 1011.68 1012.03 1012.63 1013.34 1014.04 1014.58 1014.88 1014.92 1014.75 1014.49 1014.24 1014.10 1014.16 1014.39 1014.77 1015.20 1015.59 1015.87 1016.01 1016.01 1015.92 1015.78 1015.67 1015.59 1015.57 1015.58 1015.58 1015.56 1015.48 1015.37 1015.25 1015.16 1015.15 1015.21 1015.36 1015.54 1015.73 1015.87 1015.93
1010.85 1011.64 1012.29 1012.69 1012.81 1012.65 1012.32 1011.95 1011.68 1011.64 1011.89 1012.40 1013.10 1013.85 1014.51 1014.97 1015.17 1015.10 1014.85 1014.54 1014.28 1014.17 1014.25 1014.50 1014.87 1015.27 1015.61 1015.83 1015.92 1015.89 1015.78 1015.67 1015.59 1015.57 1015.59 1015.64 1015.66 1015.64 1015.56 1015.43 1015.30 1015.21 1015.19 1015.27 1015.42 1015.60 1015.78 1015.91 1015.95
1011.20 1011.87 1012.37 1012.62 1012.61 1012.39 1012.08 1011.79 1011.66 1011.79 1012.20 1012.85 1013.61 1014.37 1014.99 1015.36 1015.45 1015.30 1015.00 1014.66 1014.40 1014.30 1014.39 1014.63 1014.97 1015.32 1015.59 1015.74 1015.76 1015.70 1015.59 1015.50 1015.47 1015.50 1015.59 1015.68 1015.74 1015.73 1015.66 1015.53 1015.39 1015.30 1015.28 1015.35 1015.49 1015.66 1015.81 1015.91 1015.92
1011.51 1012.08 1012.45 1012.59 1012.51 1012.27 1011.99 1011.80 1011.80 1012.07 1012.60 1013.32 1014.11 1014.83 1015.38 1015.67 1015.68 1015.47 1015.13 1014.79 1014.55 1014.47 1014.56 1014.79 1015.09 1015.36 1015.55 1015.62 1015.59 1015.48 1015.37 1015.31 1015.33 1015.42 1015.57 1015.71 1015.81 1015.83 1015.76 1015.64 1015.51 1015.41 1015.39 1015.45 1015.57 1015.71 1015.84 1015.90 1015.89
1011.81 1012.29 1012.58 1012.66 1012.55 1012.33 1012.11 1012.00 1012.10 1012.46 1013.04 1013.76 1014.52 1015.18 1015.63 1015.84 1015.78 1015.54 1015.21 1014.90 1014.70 1014.65 1014.76 1014.97 1015.22 1015.42 1015.53 1015.53 1015.44 1015.31 1015.20 1015.16 1015.22 1015.37 1015.56 1015.74 1015.87 1015.91 1015.87 1015.76 1015.63 1015.54 1015.51 1015.56 1015.67 1015.79 1015.88 1015.92 1015.88
1012.09 1012.53 1012.79 1012.85 1012.75 1012.57 1012.42 1012.39 1012.54 1012.92 1013.48 1014.15 1014.81 1015.36 1015.71 1015.83 1015.74 1015.49 1015.20 1014.95 1014.81 1014.81 1014.94 1015.15 1015.36 1015.51 1015.55 1015.50 1015.37 1015.22 1015.12 1015.10 1015.19 1015.36 1015.58 1015.79 1015.93 1015.99 1015.95 1015.86 1015.75 1015.67 1015.65 1015.70 1015.80 1015.91 1015.99 1016.00 1015.95
1012.38 1012.81 1013.07 1013.15 1013.10 1012.98 1012.89 1012.91 1013.08 1013.42 1013.90 1014.45 1014.97 1015.37 1015.61 1015.66 1015.55 1015.34 1015.11 1014.95 1014.89 1014.96 1015.12 1015.33 1015.52 1015.62 1015.63 1015.55 1015.40 1015.26 1015.17 1015.16 1015.27 1015.45 1015.66 1015.86 1015.99 1016.05 1016.02 1015.94 1015.86 1015.80 1015.81 1015.88 1015.98 1016.10 1016.17 1016.19 1016.15
1012.71 1013.14 1013.42 1013.54 1013.55 1013.51 1013.47 1013.51 1013.65 1013.92 1014.27 1014.65 1015.00 1015.26 1015.39 1015.38 1015.27 1015.12 1014.98 1014.91 1014.95 1015.08 1015.28 1015.51 1015.69 1015.79 1015.79 1015.70 1015.57 1015.44 1015.37 1015.38 1015.47 1015.63 1015.81 1015.97 1016.08 1016.11 1016.08 1016.02 1015.96 1015.95 1015.99 1016.09 1016.22 1016.36 1016.45 1016.49 1016.47
1013.11 1013.54 1013.84 1014.01 1014.09 1014.10 1014.11 1014.14 1014.23 1014.38 1014.58 1014.79 1014.97 1015.08 1015.12 1015.08 1014.99 1014.90 1014.86 1014.89 1015.01 1015.21 1015.45 1015.69 1015.88 1015.99 1016.00 1015.95 1015.86 1015.77 1015.72 1015.74 1015.82 1015.93 1016.06 1016.16 1016.21 1016.20 1016.16 1016.11 1016.09 1016.11 1016.20 1016.34 1016.52 1016.68 1016.81 1016.88 1016.90
1013.61 1014.02 1014.33 1014.54 1014.67 1014.72 1014.75 1014.76 1014.77 1014.80 1014.85 1014.89 1014.91 1014.91 1014.88 1014.82 1014.78 1014.77 1014.81 1014.93 1015.12 1015.37 1015.63 1015.88 1016.08 1016.21 1016.27 1016.27 1016.24 1016.21 1016.20 1016.23 1016.28 1016.34 1016.39 1016.42 1016.40 1016.35 1016.28 1016.24 1016.24 1016.31 1016.45 1016.63 1016.84 1017.05 1017.22 1017.33 1017.39
1014.21 1014.58 1014.88 1015.11 1015.27 1015.35 1015.37 1015.34 1015.28 1015.19 1015.09 1014.98 1014.88 1014.79 1014.72 1014.68 1014.69 1014.75 1014.88 1015.06 1015.30 1015.56 1015.83 1016.08 1016.28 1016.44 1016.55 1016.63 1016.67 1016.72 1016.76 1016.80 1016.83 1016.83 1016.81 1016.75 1016.66 1016.56 1016.47 1016.43 1016.45 1016.55 1016.72 1016.94 1017.18 1017.41 1017.61 1017.76 1017.86
1014.92 1015.23 1015.50 1015.73 1015.89 1015.97 1015.98 1015.90 1015.75 1015.54 1015.32 1015.09 1014.90 1014.76 1014.68 1014.67 1014.74 1014.87 1015.06 1015.29 1015.53 1015.79 1016.03 1016.26 1016.47 1016.65 1016.82 1016.97 1017.10 1017.23 1017.33 1017.39 1017.41 1017.37 1017.28 1017.14 1016.99 1016.84 1016.73 1016.68 1016.72 1016.83 1017.02 1017.25 1017.50 1017.74 1017.96 1018.13 1018.27
1015.70 1015.94 1016.17 1016.37 1016.52 1016.59 1016.56 1016.42 1016.18 1015.87 1015.54 1015.22 1014.96 1014.79 1014.73 1014.76 1014.89 1015.09 1015.32 1015.57 1015.81 1016.03 1016.23 1016.42 1016.61 1016.81 1017.03 1017.26 1017.48 1017.69 1017.85 1017.95 1017.97 1017.90 1017.76 1017.57 1017.37 1017.18 1017.05 1017.00 1017.04 1017.16 1017.34 1017.56 1017.79 1018.02 1018.22 1018.41 1018.57
1016.46 1016.65 1016.85 1017.02 1017.15 1017.19 1017.11 1016.90 1016.58 1016.17 1015.74 1015.34 1015.04 1014.86 1014.81 1014.90 1015.09 1015.34 1015.61 1015.86 1016.08 1016.25 1016.40 1016.54 1016.71 1016.92 1017.17 1017.46 1017.77 1018.05 1018.28 1018.42 1018.45 1018.38 1018.21 1018.00 1017.77 1017.57 1017.43 1017.37 1017.41 1017.51 1017.67 1017.85 1018.04 1018.23 1018.40 1018.58 1018.75
1017.14 1017.29 1017.47 1017.64 1017.75 1017.76 1017.62 1017.34 1016.92 1016.42 1015.89 1015.42 1015.07 1014.88 1014.86 1015.00 1015.25 1015.55 1015.85 1016.11 1016.30 1016.43 1016.52 1016.62 1016.76 1016.96 1017.23 1017.57 1017.94 1018.29 1018.57 1018.76 1018.81 1018.75 1018.59 1018.38 1018.15 1017.95 1017.82 1017.77 1017.80 1017.88 1018.00 1018.13 1018.26 1018.39 1018.51 1018.66 1018.82
1017.63 1017.79 1017.97 1018.15 1018.26 1018.24 1018.06 1017.70 1017.19 1016.58 1015.96 1015.41 1015.02 1014.82 1014.82 1015.00 1015.30 1015.65 1015.99 1016.26 1016.44 1016.54 1016.60 1016.65 1016.76 1016.95 1017.23 1017.59 1017.99 1018.38 1018.71 1018.94 1019.03 1018.99 1018.86 1018.67 1018.47 1018.31 1018.20 1018.17 1018.19 1018.25 1018.32 1018.40 1018.46 1018.51 1018.58 1018.68 1018.83
1017.86 1018.06 1018.29 1018.50 1018.63 1018.60 1018.38 1017.96 1017.36 1016.65 1015.93 1015.30 1014.85 1014.62 1014.63 1014.84 1015.19 1015.59 1015.98 1016.28 1016.48 1016.58 1016.62 1016.65 1016.73 1016.90 1017.17 1017.53 1017.95 1018.35 1018.71 1018.96 1019.08 1019.08 1018.99 1018.85 1018.70 1018.59 1018.52 1018.52 1018.55 1018.60 1018.64 1018.66 1018.65 1018.64 1018.65 1018.71 1018.83
1017.82 1018.09 1018.39 1018.66 1018.82 1018.81 1018.57 1018.10 1017.42 1016.62 1015.80 1015.09 1014.57 1014.30 1014.30 1014.53 1014.92 1015.38 1015.82 1016.18 1016.41 1016.54 1016.59 1016.62 1016.68 1016.83 1017.08 1017.43 1017.82 1018.22 1018.57 1018.83 1018.98 1019.02 1018.98 1018.90 1018.82 1018.77 1018.77 1018.81 1018.86 1018.91 1018.94 1018.92 1018.86 1018.80 1018.75 1018.77 1018.86
1017.52 1017.87 1018.25 1018.61 1018.83 1018.86 1018.62 1018.12 1017.39 1016.52 1015.62 1014.82 1014.24 1013.92 1013.89 1014.13 1014.55 1015.05 1015.55 1015.97 1016.27 1016.44 1016.53 1016.57 1016.63 1016.76 1016.98 1017.28 1017.64 1018.01 1018.34 1018.60 1018.76 1018.84 1018.85 1018.84 1018.83 1018.86 1018.92 1019.02 1019.12 1019.19 1019.21 1019.17 1019.09 1018.99 1018.91 1018.88 1018.94
1017.03 1017.46 1017.93 1018.37 1018.68 1018.76 1018.56 1018.06 1017.31 1016.39 1015.44 1014.58 1013.92 1013.55 1013.49 1013.71 1014.14 1014.68 1015.23 1015.71 1016.07 1016.30 1016.43 1016.50 1016.56 1016.68 1016.86 1017.12 1017.43 1017.75 1018.05 1018.29 1018.46 1018.57 1018.63 1018.69 1018.76 1018.86 1019.00 1019.15 1019.30 1019.40 1019.45 1019.42 1019.33 1019.21 1019.11 1019.06 1019.09
1016.44 1016.93 1017.48 1018.01 1018.41 1018.57 1018.43 1017.98 1017.24 1016.32 1015.33 1014.43 1013.73 1013.30 1013.20 1013.38 1013.80 1014.35 1014.92 1015.45 1015.86 1016.14 1016.31 1016.40 1016.48 1016.58 1016.73 1016.94 1017.20 1017.47 1017.73 1017.96 1018.13 1018.26 1018.37 1018.48 1018.61 1018.79 1018.99 1019.21 1019.41 1019.56 1019.64 1019.63 1019.56 1019.45 1019.34 1019.27 1019.28
1015.86 1016.39 1017.00 1017.61 1018.09 1018.35 1018.30 1017.92 1017.25 1016.36 1015.39 1014.48 1013.74 1013.27 1013.11 1013.24 1013.61 1014.13 1014.70 1015.23 1015.66 1015.98 1016.17 1016.29 1016.37 1016.46 1016.58 1016.75 1016.96 1017.19 1017.42 1017.63 1017.80 1017.95 1018.09 1018.25 1018.44 1018.67 1018.94 1019.21 1019.46 1019.65 1019.77 1019.80 1019.76 1019.67 1019.57 1019.50 1019.49
1015.38 1015.92 1016.58 1017.25 1017.81 1018.16 1018.22 1017.95 1017.38 1016.57 1015.66 1014.77 1014.03 1013.52 1013.30 1013.36 1013.66 1014.11 1014.62 1015.12 1015.53 1015.84 1016.05 1016.17 1016.25 1016.32 1016.43 1016.57 1016.75 1016.95 1017.15 1017.34 1017.52 1017.68 1017.85 1018.04 1018.27 1018.54 1018.84 1019.15 1019.44 1019.67 1019.83 1019.90 1019.89 1019.83 1019.75 1019.69 1019.67
1015.07 1015.60 1016.27 1016.99 1017.62 1018.07 1018.24 1018.09 1017.65 1016.97 1016.15 1015.33 1014.62 1014.09 1013.82 1013.80 1013.99 1014.34 1014.75 1015.17 1015.52 1015.79 1015.97 1016.08 1016.15 1016.21 1016.31 1016.43 1016.59 1016.78 1016.97 1017.16 1017.33 1017.50 1017.68 1017.88 1018.12 1018.40 1018.71 1019.04 1019.35 1019.60 1019.79 1019.90 1019.94 1019.91 1019.85 1019.80 1019.78
1014.94 1015.45 1016.12 1016.85 1017.53 1018.06 1018.34 1018.34 1018.05 1017.52 1016.84 1016.12 1015.46 1014.95 1014.64 1014.53 1014.61 1014.83 1015.12 1015.42 1015.67 1015.87 1015.99 1016.07 1016.12 1016.18 1016.26 1016.38 1016.54 1016.72 1016.90 1017.09 1017.26 1017.42 1017.59 1017.78 1018.01 1018.27 1018.57 1018.88 1019.19 1019.45 1019.66 1019.80 1019.87 1019.87 1019.85 1019.81 1019.80
Thickness
5804 5807 5807 5795 5775 5764 5761 5770 5779 5779 5782 5790 5796 5790 5777 5769 5762 5748 5766 5778 5779 5776 5774 5772 5771 5771 5770 5769 5768 5767 5766 5765 5764 5763 5761 5760 5759 5758 5757 5757 5756 5755 5755 5754 5754 5754 5755 5755 5755
5806 5809 5800 5785 5764 5753 5756 5771 5773 5778 5786 5793 5793 5788 5777 5769 5771 5767 5770 5777 5778 5775 5772 5770 5769 5768 5768 5767 5766 5765 5764 5763 5762 5761 5759 5758 5757 5756 5755 5755 5754 5753 5753 5752 5752 5752 5752 5753 5753
5805 5807 5788 5775 5765 5757 5757 5770 5774 5782 5791 5790 5784 5781 5772 5765 5770 5769 5773 5778 5777 5773 5770 5767 5767 5766 5765 5765 5764 5763 5762 5761 5760 5758 5757 5756 5755 5754 5754 5753 5752 5751 5751 5750 5749 5749 5749 5750 5750
5802 5793 5786 5770 5760 5768 5770 5774 5780 5780 5784 5788 5783 5770 5767 5773 5773 5773 5777 5778 5775 5771 5768 5765 5765 5764 5763 5762 5761 5761 5760 5759 5758 5757 5756 5755 5754 5752 5752 5751 5750 5749 5748 5747 5747 5747 5747 5747 5748
5798 5782 5768 5760 5762 5769 5776 5782 5784 5777 5777 5780 5777 5760 5756 5769 5776 5777 5777 5776 5774 5770 5767 5765 5763 5763 5762 5761 5760 5759 5758 5757 5756 5755 5754 5753 5752 5751 5750 5749 5748 5747 5746 5745 5744 5744 5744 5745 5745
5780 5776 5757 5752 5758 5768 5775 5782 5782 5776 5774 5776 5771 5760 5754 5768 5771 5773 5775 5774 5773 5770 5767 5764 5763 5762 5760 5759 5758 5757 5757 5756 5755 5754 5753 5752 5751 5750 5748 5747 5746 5745 5743 5742 5742 5742 5742 5742 5743
5770 5764 5756 5757 5755 5760 5770 5781 5777 5772 5770 5773 5775 5758 5754 5762 5768 5771 5772 5772 5772 5771 5768 5765 5763 5761 5759 5758 5757 5756 5756 5755 5754 5753 5753 5751 5750 5749 5747 5746 5744 5743 5742 5741 5740 5740 5740 5740 5741
5777 5765 5758 5758 5753 5755 5771 5777 5778 5773 5768 5778 5778 5759 5750 5759 5768 5769 5769 5769 5770 5770 5769 5767 5765 5763 5760 5758 5757 5757 5756 5755 5754 5754 5753 5752 5750 5749 5747 5745 5743 5742 5740 5739 5738 5738 5738 5739 5739
5778 5756 5749 5755 5753 5756 5770 5769 5772 5778 5772 5772 5774 5769 5764 5766 5767 5764 5763 5764 5765 5767 5768 5768 5767 5765 5763 5761 5759 5757 5756 5755 5754 5754 5753 5752 5751 5749 5747 5745 5743 5741 5740 5739 5738 5737 5737 5737 5738
5767 5747 5752 5766 5769 5763 5767 5767 5768 5766 5761 5759 5760 5762 5765 5764 5763 5760 5759 5759 5761 5764 5767 5769 5768 5766 5764 5763 5759 5758 5757 5756 5755 5755 5754 5753 5752 5750 5747 5744 5742 5741 5739 5738 5738 5738 5737 5737 5738
5763 5751 5759 5768 5772 5770 5765 5765 5770 5761 5751 5755 5753 5755 5760 5761 5760 5760 5760 5761 5762 5764 5766 5768 5767 5766 5764 5761 5759 5758 5757 5756 5755 5755 5754 5753 5751 5750 5747 5744 5742 5741 5740 5739 5739 5738 5738 5738 5738
5757 5757 5762 5763 5769 5767 5763 5763 5762 5760 5756 5763 5762 5760 5759 5758 5759 5760 5760 5760 5762 5763 5764 5766 5767 5765 5763 5761 5759 5757 5756 5755 5754 5754 5753 5752 5750 5749 5747 5746 5744 5742 5740 5739 5739 5738 5738 5738 5738
5749 5751 5759 5762 5764 5764 5763 5759 5756 5755 5761 5764 5762 5759 5758 5759 5760 5763 5764 5763 5761 5760 5762 5763 5764 5763 5761 5759 5758 5756 5754 5754 5752 5752 5752 5751 5750 5749 5747 5745 5743 5742 5740 5739 5738 5737 5736 5735 5735
5748 5749 5752 5756 5757 5759 5753 5752 5751 5749 5758 5757 5755 5754 5757 5757 5760 5760 5762 5761 5760 5760 5760 5761 5761 5761 5760 5758 5757 5755 5753 5752 5751 5750 5750 5750 5749 5748 5746 5744 5742 5740 5739 5738 5736 5735 5734 5733 5732
5748 5740 5741 5746 5750 5752 5750 5739 5743 5750 5754 5750 5751 5752 5754 5756 5759 5759 5761 5762 5761 5760 5760 5759 5759 5759 5757 5755 5754 5753 5752 5750 5749 5748 5748 5748 5747 5747 5744 5742 5740 5739 5738 5737 5735 5734 5732 5731 5731
5739 5731 5723 5734 5744 5748 5740 5722 5740 5750 5749 5745 5747 5749 5750 5754 5758 5761 5762 5762 5762 5760 5758 5757 5758 5755 5753 5752 5751 5751 5749 5748 5747 5745 5745 5746 5746 5745 5742 5740 5739 5737 5736 5735 5733 5731 5729 5728 5727
5725 5718 5717 5725 5740 5742 5736 5725 5738 5747 5747 5743 5744 5746 5747 5750 5756 5759 5761 5762 5761 5759 5757 5754 5754 5752 5750 5750 5749 5748 5746 5745 5744 5742 5742 5742 5742 5741 5739 5738 5737 5736 5734 5732 5731 5728 5726 5724 5724
5715 5718 5720 5721 5733 5736 5730 5727 5734 5743 5743 5742 5743 5744 5746 5748 5753 5758 5760 5761 5760 5759 5756 5753 5751 5750 5749 5748 5747 5745 5744 5743 5741 5740 5739 5739 5739 5738 5737 5736 5735 5733 5731 5729 5728 5726 5725 5723 5723
5728 5722 5720 5725 5737 5731 5726 5725 5731 5739 5740 5740 5741 5743 5746 5749 5755 5758 5758 5758 5758 5757 5754 5752 5749 5748 5746 5744 5742 5739 5738 5739 5738 5738 5736 5736 5735 5735 5734 5734 5732 5730 5728 5726 5725 5723 5722 5720 5721
5727 5718 5718 5725 5735 5730 5724 5725 5734 5738 5738 5741 5743 5745 5747 5749 5752 5753 5754 5754 5755 5754 5753 5751 5749 5747 5745 5743 5742 5741 5739 5738 5736 5735 5734 5734 5733 5732 5732 5731 5729 5728 5725 5724 5723 5721 5718 5718 5719
5723 5719 5719 5720 5728 5731 5723 5717 5726 5736 5741 5743 5746 5749 5751 5750 5750 5750 5752 5752 5752 5751 5751 5751 5749 5747 5744 5743 5741 5739 5737 5735 5733 5732 5731 5731 5730 5729 5729 5729 5728 5726 5724 5721 5720 5719 5716 5713 5715
5713 5728 5727 5723 5718 5713 5720 5701 5720 5732 5734 5739 5742 5747 5750 5752 5752 5751 5751 5751 5751 5752 5752 5751 5749 5747 5745 5742 5739 5736 5732 5729 5730 5731 5730 5729 5728 5727 5726 5726 5725 5724 5722 5719 5719 5718 5716 5713 5710
5721 5732 5728 5725 5719 5715 5720 5710 5717 5734 5729 5736 5743 5747 5750 5753 5754 5752 5752 5752 5753 5753 5751 5750 5748 5746 5744 5741 5739 5735 5733 5732 5731 5730 5728 5727 5726 5725 5724 5723 5723 5721 5720 5718 5717 5715 5714 5712 5709
5731 5728 5724 5723 5715 5699 5717 5712 5710 5731 5737 5742 5747 5751 5753 5755 5756 5755 5755 5754 5753 5752 5750 5748 5745 5743 5742 5740 5737 5735 5732 5731 5728 5727 5725 5724 5723 5723 5722 5721 5720 5719 5717 5715 5714 5713 5711 5710 5708
5726 5710 5695 5691 5690 5698 5725 5720 5722 5747 5756 5755 5753 5755 5757 5758 5756 5754 5752 5751 5749 5748 5747 5746 5743 5740 5739 5738 5737 5735 5733 5731 5728 5726 5724 5723 5721 5720 5720 5719 5718 5716 5715 5713 5712 5710 5709 5708 5706
5720 5712 5693 5685 5691 5705 5725 5721 5737 5760 5765 5766 5764 5761 5759 5758 5757 5754 5753 5751 5749 5747 5746 5744 5742 5739 5738 5737 5736 5736 5734 5731 5729 5727 5726 5723 5721 5720 5719 5717 5716 5714 5712 5711 5709 5707 5706 5705 5703
5720 5719 5727 5714 5714 5707 5716 5730 5744 5759 5759 5761 5761 5759 5757 5757 5757 5756 5754 5753 5750 5747 5746 5744 5742 5739 5738 5737 5736 5734 5733 5730 5728 5728 5726 5723 5722 5720 5718 5715 5713 5712 5710 5708 5707 5704 5703 5701 5700
5733 5730 5723 5712 5696 5693 5709 5719 5725 5740 5747 5754 5755 5755 5757 5758 5757 5756 5754 5753 5751 5749 5747 5745 5742 5739 5738 5737 5735 5733 5731 5730 5727 5726 5723 5721 5720 5718 5716 5713 5711 5709 5707 5705 5703 5701 5700 5698 5696
5729 5728 5725 5720 5716 5699 5692 5709 5747 5748 5753 5754 5755 5757 5757 5757 5756 5755 5753 5753 5751 5748 5745 5743 5741 5739 5737 5735 5734 5731 5729 5728 5726 5723 5721 5719 5717 5716 5713 5711 5709 5707 5704 5702 5700 5698 5696 5694 5692
5738 5734 5725 5706 5708 5716 5705 5712 5757 5756 5759 5758 5757 5758 5758 5757 5756 5755 5753 5750 5748 5745 5743 5741 5740 5737 5735 5735 5732 5730 5727 5725 5722 5719 5718 5717 5714 5713 5711 5708 5706 5704 5701 5699 5697 5694 5692 5690 5688